Location: Le Rocchette
(44.3500°N, 7.8333°E)
Time: 02:02:18
(UTC+00:00)

Cosmos 2322 Rocket - Pass Details

Date: 17 November 2019
Orbit: 833 x 851 km, 71.0° (Epoch: 06 December)

Event Time Altitude Azimuth Distance (km) Brightness Sun altitude
Exits shadow 03:19:05 15° 9° (N) 2,161 4.4 -33.4°
Maximum altitude 03:22:10 22° 48° (NE) 1,780 4.3 -32.8°
Drops below altitude 10° 03:26:28 10° 98° (E) 2,468 5.4 -32.1°
Sets 03:29:30 0° 113° (ESE) 3,402 6.2 -31.5°
